Temp_Advection
nan nan nan nan nan nan nan nan nan nan nan nan nan nan nan nan nan nan nan nan nan nan nan nan nan nan nan nan nan nan nan nan nan nan nan nan nan nan nan nan nan nan nan nan nan
nan -0 -0 -0 -0 -0 -0 -0 -0 -0 -0 -0 -0 -0 -0 -0 -0 -1 -0 0 -0 -0 0 -0 -0 0 -0 -0 -0 0 0 0 0 -0 -1 -0 -0 -0 -0 -1 -0 -0 -1 -0 nan
nan -0 -0 -0 -0 -0 -0 -0 -0 -0 -0 -0 -0 -0 -0 -0 -0 -1 0 -0 -0 -0 -0 -0 -0 -0 -1 -0 -0 -0 -0 -0 -1 -1 -0 -0 -0 0 -0 -1 -1 -0 -1 -1 nan
nan -0 -0 -0 -0 -0 -0 -0 -0 -0 -0 -0 -0 -0 -0 -0 -1 0 -0 -0 -0 0 -0 -1 -1 -1 -0 -0 0 -0 0 -0 -0 -0 -0 -0 -0 -0 -1 -0 -0 -0 -0 -0 nan
nan -0 -0 -0 -0 -0 -0 -0 -0 -0 -0 -0 -0 -0 -0 -1 0 0 0 -0 -0 0 -1 -1 -0 -0 -0 -0 -9 2 -0 -0 -0 -0 -0 -0 -0 -0 -1 -0 -0 -0 -0 -0 nan
nan -0 -0 -0 -0 -0 -0 -0 -0 -0 -0 -0 -0 -0 -0 -1 0 -0 0 -0 -0 -0 -1 -0 -0 -0 -0 -1 -3 1 -0 -0 -0 -0 -0 -0 -0 0 -0 -0 -0 -0 -0 -0 nan
nan -0 -0 -0 -0 -0 -0 -0 -0 -0 -0 -0 -0 -0 -1 -0 -0 -0 -0 -0 -0 -0 -0 -0 -0 -0 -0 -0 -1 -0 1 2 -0 -0 -0 0 0 -0 -1 -0 -0 -0 -0 -0 nan
nan -0 -0 -0 -0 -0 -0 -0 -0 -0 -0 -0 -0 -0 -0 0 0 -0 -0 -0 -0 -0 -0 0 -0 -1 -0 -0 0 0 -5 -3 3 -0 -0 0 0 -0 -1 -0 -0 -0 -0 0 nan
nan -0 -0 -0 -0 -0 -0 -0 -0 0 0 0 0 -0 -0 -0 -0 -0 -0 -0 -0 -0 -0 -0 -1 -1 -0 2 1 2 -2 -2 0 -0 -0 0 0 -0 -0 -0 -0 -0 -0 -0 nan
nan -0 -0 -0 -0 -0 0 -0 0 0 0 -0 -1 -1 -0 -1 -0 -0 -0 -0 -0 -0 -0 -1 -1 -1 2 -6 -0 -6 2 -0 0 0 -0 -0 -0 -1 -1 -0 -0 -0 -0 -0 nan
nan -0 -0 -0 -0 -0 0 0 -0 0 -2 -1 -1 -0 -0 -0 -0 -0 -0 -0 -0 -1 -1 -1 -0 0 0 -7 -10 -4 -0 0 0 -0 0 -0 -0 -0 -2 -0 -0 -0 -0 -0 nan
nan -0 -0 -0 -0 -0 0 -0 -0 -0 -1 0 0 0 0 0 -1 -0 -0 -1 -1 -1 -1 -0 1 -1 0 0 0 1 -0 0 0 -0 -0 -0 -2 1 -0 -1 -0 -0 -0 -0 nan
nan -0 -0 -0 -0 -0 -0 -0 -0 -0 -1 -0 -0 -0 -0 -0 -1 -0 -0 -1 -1 -1 -1 0 0 -0 0 0 -0 0 0 -0 -0 1 -7 0 -1 -6 1 -0 -0 -0 -0 -0 nan
nan -0 -1 -0 -0 -0 -0 0 -0 -1 -1 -1 -1 -0 -0 -1 -0 -0 -0 -1 -0 -0 -0 -0 -0 0 0 -0 1 -1 -4 0 0 3 -1 -2 -1 -0 0 -0 -0 -0 -0 -0 nan
nan -0 -0 -1 -0 -0 -0 0 -0 -1 -1 0 -1 -0 -1 -1 0 -0 -0 -0 -0 -0 -0 0 -0 -0 -0 -0 -0 1 0 0 0 -0 1 -0 2 -0 0 -0 -0 -0 -0 -0 nan
nan -0 -0 -0 -0 -0 -0 -0 -0 -1 -0 0 0 -1 -1 -0 -0 -0 -0 -0 -1 -0 0 0 0 -0 -0 0 0 0 0 -0 2 -3 -2 -1 0 -0 -0 0 -0 -0 0 0 nan
nan -0 -0 -1 -0 0 -0 -1 -1 -1 -0 -1 -1 -1 -0 -0 -0 -0 -0 -0 -0 0 -0 0 -0 0 0 0 0 0 0 0 2 -1 -1 -1 -1 0 0 -0 -0 -0 -0 0 nan
nan -0 -1 0 0 -0 -1 -1 -1 -1 -0 -0 -0 -0 -0 -0 -0 -0 -0 -1 -1 -1 0 0 -0 -1 -0 0 -0 -0 0 1 0 1 -1 0 -0 0 -2 0 -0 -0 -0 0 nan
nan -0 -0 -0 0 -0 -2 -1 -1 0 0 0 0 -0 -0 0 0 0 -0 -1 -0 0 0 -0 -1 -0 0 0 0 0 -0 -0 0 -0 1 -0 -1 1 -0 -0 -0 -0 -0 -0 nan
nan -0 -1 0 0 -1 -1 -3 -0 -0 -0 -0 0 -0 -0 0 0 -0 -0 -1 -0 -0 -0 1 -0 -0 0 0 0 -0 0 0 0 1 -0 1 -0 0 -0 -0 -0 -0 -0 -0 nan
nan -1 0 0 -1 -2 -2 -2 0 0 0 -0 -0 -0 -0 -0 -0 -0 -0 0 0 0 0 0 -0 0 0 0 -0 -0 0 -1 -0 1 0 0 0 0 -0 -0 -0 -0 -0 -0 nan
nan -1 -0 -0 -2 -3 -1 -0 0 -0 -0 -0 -1 -0 -0 -0 0 -0 -0 0 0 0 0 -0 0 0 -0 -1 -0 0 0 0 0 -0 -0 -0 -0 -0 0 0 -0 -0 -0 -0 nan
nan -1 -0 -1 -1 -1 -0 0 -0 -0 -0 0 -0 -0 -0 0 -0 -0 0 -0 0 0 0 0 0 -0 -0 0 0 0 -0 -0 -0 1 1 0 -1 0 0 0 0 -0 -0 0 nan
nan -0 -1 -1 -3 -1 -0 0 -0 -1 -0 0 -0 0 0 0 0 0 0 0 0 1 -0 -1 -0 0 -0 -0 0 -0 -0 -0 0 0 -0 -0 -0 -0 -0 0 -0 0 0 0 nan
nan -1 0 -0 -1 -1 0 0 -0 -0 0 0 0 -0 -0 -0 0 -0 -0 -0 0 0 -1 -0 0 -1 -0 -0 0 0 0 0 0 0 -0 -0 -0 0 -0 -0 -0 0 0 0 nan
nan -1 -0 -2 -0 1 0 -1 -0 -0 -0 -0 -0 -1 -0 -0 -0 -0 0 -0 -0 -0 -1 0 0 -0 -1 -0 0 0 -0 0 -0 0 -0 -0 -0 -0 -0 -0 0 0 0 0 nan
nan nan nan nan nan nan nan nan nan nan nan nan nan nan nan nan nan nan nan nan nan nan nan nan nan nan nan nan nan nan nan nan nan nan nan nan nan nan nan nan nan nan nan nan nan
Wind_Speed
13 13 13 14 14 13 13 12 11 11 11 10 9 8 5 6 8 10 8 6 8 5 3 4 5 6 6 7 1 23 4 11 15 13 11 6 9 11 9 9 10 3 19 21 22
13 13 14 14 14 14 13 13 12 11 11 9 8 7 4 5 8 11 12 13 10 6 4 4 7 4 10 2 1 9 11 14 12 14 11 9 11 6 9 12 9 15 20 22 21
13 14 14 15 15 14 14 13 12 11 10 9 7 5 3 4 5 11 17 13 11 8 7 8 10 7 15 4 1 9 13 14 14 14 11 9 8 3 7 13 13 19 23 23 20
13 14 15 15 15 15 14 14 13 11 10 7 5 4 3 10 8 9 16 15 12 8 9 8 10 13 9 5 1 12 13 11 10 7 8 11 4 10 14 10 15 18 22 21 19
13 14 15 15 16 15 15 15 13 11 9 6 4 3 4 8 3 7 16 16 14 9 8 10 12 6 9 1 36 16 8 10 8 8 9 6 5 8 12 11 16 18 19 18 17
14 14 15 16 17 16 16 15 12 9 7 5 5 5 5 12 3 7 14 18 14 11 9 10 5 7 7 5 32 4 8 9 6 7 5 3 8 10 11 13 17 17 16 16 16
15 15 15 17 17 17 17 13 10 6 5 5 6 6 7 1 7 7 16 17 13 11 10 6 7 11 6 5 3 7 9 12 9 6 2 8 10 5 16 15 17 17 16 15 15
16 16 16 17 18 17 15 10 6 2 3 5 6 6 5 7 7 9 15 15 13 11 8 6 8 15 12 3 6 2 18 14 11 5 4 11 10 9 15 16 16 16 15 15 16
18 17 16 17 17 17 10 5 2 2 4 6 5 7 6 12 10 13 15 16 14 12 9 7 9 21 8 13 6 13 9 5 13 5 3 4 9 11 12 16 16 16 14 14 15
19 18 16 17 16 14 8 1 2 2 3 5 6 8 9 14 13 14 15 14 17 15 11 11 16 14 14 18 3 19 6 8 8 8 4 6 11 13 15 16 17 17 18 15 15
21 19 16 15 15 9 4 3 3 4 12 7 14 3 8 11 10 13 18 15 19 18 16 18 16 12 7 23 34 16 3 5 7 5 6 4 5 6 20 15 15 18 19 18 18
21 21 17 14 11 5 6 4 5 4 9 12 7 7 6 9 12 15 20 18 18 16 23 13 13 16 8 6 6 9 24 8 6 2 8 5 11 10 9 16 16 18 18 19 18
21 22 17 13 4 6 3 1 4 7 8 12 12 15 11 13 14 18 22 25 19 20 21 18 6 8 5 6 11 11 3 8 10 10 28 20 6 24 8 9 14 15 16 19 20
21 22 19 8 3 7 2 3 8 4 6 13 13 11 12 14 9 17 24 23 12 20 16 16 16 7 6 13 5 17 22 5 11 13 7 15 5 11 4 9 8 13 17 17 18
20 21 17 14 8 3 3 5 6 3 6 17 14 11 15 19 16 16 21 19 17 20 11 20 11 7 12 11 6 12 7 11 14 14 16 10 10 7 4 11 8 11 14 14 15
20 20 18 12 9 7 8 7 4 7 4 9 12 14 17 21 13 21 20 15 18 14 20 18 11 10 15 11 3 13 13 17 19 15 12 10 7 6 4 9 8 8 10 11 13
19 20 18 10 3 5 5 5 7 10 11 10 15 20 20 14 14 16 18 20 17 17 18 17 12 10 11 9 10 12 16 15 8 4 6 9 14 3 14 11 5 7 9 10 11
19 20 15 11 7 9 5 8 10 8 11 9 14 17 19 18 16 17 19 18 20 18 12 14 16 17 14 12 18 15 13 11 11 8 9 14 6 10 16 12 8 7 9 11 13
19 10 8 6 9 10 11 10 9 4 8 10 11 17 18 19 10 16 18 18 19 20 17 14 18 10 17 13 14 16 15 13 17 17 11 5 7 9 6 10 10 8 11 12 13
20 9 9 9 9 10 10 18 3 5 2 8 14 15 18 19 11 16 16 17 19 16 17 13 8 8 11 10 14 16 16 14 8 12 8 10 9 6 1 9 8 8 12 13 14
12 7 7 6 11 15 12 19 8 7 8 9 14 13 15 15 17 16 14 8 15 14 13 16 7 7 5 9 16 13 13 14 17 11 6 6 6 5 6 6 10 10 12 15 16
11 8 6 10 12 18 13 16 5 10 10 7 9 8 15 18 17 15 10 11 11 11 15 16 6 12 11 11 11 11 10 16 12 15 12 11 6 4 7 9 6 9 14 16 17
8 11 6 13 8 12 17 6 7 15 12 11 11 10 9 10 12 10 9 8 9 10 8 12 10 11 13 14 10 11 13 15 15 16 16 9 9 6 4 6 4 11 14 16 19
7 6 10 16 23 13 16 12 15 16 11 11 8 9 9 11 13 10 10 7 9 12 2 8 14 12 9 9 4 14 13 13 16 12 14 9 10 9 7 5 12 8 13 17 20
9 9 1 9 15 14 9 13 17 13 16 13 10 14 16 13 13 13 14 12 9 4 7 10 14 14 12 11 13 7 10 11 13 14 17 15 8 4 6 10 7 4 13 17 20
9 6 5 22 12 15 8 11 15 16 18 15 14 16 16 13 14 14 15 12 14 9 12 16 14 9 12 11 15 10 14 14 10 11 13 16 14 10 3 3 2 5 13 20 22
5 10 8 11 11 12 12 13 14 9 11 16 17 15 12 8 3 7 8 18 14 12 14 13 10 6 13 14 7 9 13 17 15 15 15 14 12 14 7 8 13 9 10 19 24
Wind_Direction
334 334 332 333 332 332 330 325 321 316 313 320 321 316 299 250 216 203 210 215 199 191 246 263 266 298 299 272 343 28 313 55 53 70 102 114 93 66 81 102 60 105 136 141 148
334 333 332 331 330 330 327 321 315 311 309 312 315 310 304 252 213 223 220 219 183 179 188 246 284 305 268 182 86 57 60 77 16 66 95 88 81 119 125 119 107 103 121 143 149
335 333 331 329 329 329 325 318 310 306 302 306 308 302 284 211 196 208 217 182 167 179 215 268 287 286 270 257 142 127 66 62 57 61 94 105 109 49 55 89 138 137 142 150 153
336 333 331 329 328 327 324 313 306 300 297 298 293 278 247 184 204 173 191 179 173 190 253 266 258 259 275 138 129 92 65 76 73 91 115 84 120 85 70 83 128 143 149 154 161
336 334 330 328 326 327 322 311 303 298 288 282 266 238 192 211 168 201 180 172 177 194 239 250 277 280 286 5 14 110 104 97 87 105 90 139 120 105 95 116 136 143 152 156 161
334 332 330 328 327 326 321 315 306 295 277 260 226 204 205 238 156 177 182 178 181 202 225 243 317 306 303 102 134 123 103 103 116 98 114 145 130 196 125 139 145 151 159 165 158
334 332 330 329 328 328 325 321 311 293 259 228 195 203 243 321 159 174 177 180 186 198 217 243 282 266 280 171 177 158 153 161 125 126 118 252 156 199 149 150 155 163 171 169 166
335 332 331 331 329 330 327 328 329 303 210 187 181 191 239 174 173 167 173 183 197 203 246 229 270 270 256 24 206 213 37 291 107 146 121 278 112 145 160 169 163 172 174 179 174
338 333 333 332 330 332 328 333 8 101 155 160 157 194 199 175 186 190 188 191 191 196 205 240 253 252 234 232 232 170 182 212 134 145 161 241 348 118 174 181 177 177 178 182 183
338 335 333 332 331 335 333 328 55 131 154 151 202 227 203 193 184 190 191 203 192 188 197 223 229 238 223 89 341 262 75 115 65 84 195 245 246 176 176 192 185 188 184 192 179
338 336 335 334 335 342 351 308 264 208 214 274 187 268 135 165 177 198 191 194 197 193 208 213 240 231 208 136 191 247 282 103 91 87 282 259 299 93 161 194 200 195 187 198 197
337 337 338 337 337 359 45 322 29 353 272 221 217 219 193 194 188 195 184 194 202 203 221 195 245 241 26 11 272 264 39 46 82 131 284 337 342 114 158 174 197 198 193 194 202
335 337 338 341 354 10 310 340 334 331 249 174 205 206 188 195 208 185 191 203 196 212 216 232 319 114 215 207 261 263 21 32 348 313 20 314 22 280 121 150 175 200 205 196 197
332 335 339 344 359 323 272 299 330 299 259 149 190 205 189 202 225 186 194 203 204 218 210 251 153 197 225 266 290 105 270 342 308 304 182 234 155 35 166 135 166 198 205 202 196
328 331 335 326 301 289 279 312 318 259 240 151 143 150 184 203 151 185 192 203 221 222 200 224 149 208 241 258 20 314 359 314 287 284 273 333 291 248 181 73 125 187 204 203 200
323 325 323 328 293 269 287 296 293 228 209 154 152 184 177 211 187 161 193 221 229 228 221 252 176 213 239 252 224 304 288 268 250 0 332 226 301 89 278 64 104 152 196 197 192
318 317 307 287 210 264 275 251 223 246 139 159 175 173 191 186 185 166 189 202 210 213 220 225 242 232 237 256 209 248 260 273 290 109 239 346 286 54 97 78 77 147 174 184 179
316 315 297 270 245 246 237 228 245 234 187 149 161 181 196 182 185 191 193 202 219 226 215 214 223 210 215 236 268 254 295 294 282 308 184 171 312 107 282 105 121 133 166 173 183
320 323 291 281 218 206 218 222 223 184 128 177 184 186 199 181 199 195 204 214 203 228 235 229 223 228 213 219 225 253 254 280 291 300 315 133 222 92 91 114 135 158 158 175 176
324 305 241 214 201 187 226 243 236 4 352 271 196 200 191 185 204 201 196 210 217 211 246 270 284 250 181 229 256 268 284 264 219 260 269 60 275 119 343 129 154 169 179 178 171
321 255 179 205 175 208 224 235 214 207 227 232 238 193 203 186 201 190 191 189 220 185 226 254 219 201 206 221 251 209 242 257 287 291 319 307 87 115 161 258 149 176 187 177 175
286 245 173 172 200 218 225 235 176 201 207 246 295 245 233 183 197 201 212 200 213 204 208 227 231 235 203 232 232 281 238 230 246 230 248 315 282 337 44 360 32 186 176 178 180
265 255 196 189 222 215 227 230 210 230 197 201 219 232 240 193 197 209 201 73 155 225 216 224 233 251 236 173 204 247 253 273 271 272 275 223 247 74 303 171 190 273 166 184 182
269 222 183 209 248 282 210 210 206 234 248 218 240 190 211 216 201 195 161 162 188 226 31 280 237 233 245 232 271 194 222 239 257 255 257 251 273 276 329 188 131 268 173 190 190
239 257 87 195 217 234 236 217 214 190 219 205 215 216 204 213 190 205 175 156 182 172 221 243 242 260 269 276 278 280 229 239 249 264 271 276 205 353 24 23 21 193 192 193 192
290 289 260 276 209 212 170 232 217 210 187 207 236 211 211 216 202 200 190 176 183 172 213 221 260 290 298 292 268 241 262 273 214 261 255 275 287 317 359 67 329 291 228 202 199
295 277 276 237 223 213 212 225 224 222 208 219 205 213 207 227 108 307 189 193 183 184 210 226 240 250 257 265 296 246 244 264 254 226 240 256 248 260 327 335 334 294 245 221 208
Height
1522 1520 1518 1516 1514 1512 1510 1508 1506 1504 1502 1500 1499 1497 1497 1496 1496 1496 1498 1499 1499 1498 1497 1497 1496 1495 1493 1487 1487 1489 1480 1482 1483 1485 1495 1495 1496 1502 1503 1504 1507 1508 1511 1519 1526
1521 1519 1517 1515 1513 1511 1509 1507 1505 1503 1501 1499 1498 1496 1496 1495 1495 1497 1497 1497 1498 1498 1497 1498 1492 1492 1486 1481 1481 1486 1475 1483 1480 1481 1491 1495 1497 1499 1498 1502 1510 1510 1515 1522 1527
1521 1518 1516 1514 1511 1509 1507 1505 1503 1501 1499 1498 1497 1496 1495 1495 1497 1492 1494 1496 1498 1497 1497 1498 1494 1489 1478 1476 1477 1476 1481 1480 1485 1488 1492 1496 1497 1498 1496 1500 1508 1512 1517 1523 1527
1519 1517 1515 1512 1510 1508 1506 1503 1501 1499 1498 1497 1496 1495 1495 1494 1491 1489 1492 1495 1497 1497 1497 1497 1491 1483 1475 1477 1479 1479 1481 1484 1488 1491 1492 1495 1499 1499 1503 1506 1509 1514 1519 1523 1526
1519 1516 1513 1511 1508 1505 1503 1501 1498 1497 1496 1495 1495 1494 1494 1495 1490 1490 1492 1495 1496 1497 1497 1494 1486 1484 1478 1477 1495 1476 1486 1485 1489 1491 1493 1497 1498 1501 1505 1509 1512 1517 1521 1523 1525
1518 1515 1512 1509 1506 1503 1500 1498 1495 1494 1494 1494 1494 1493 1494 1492 1490 1491 1492 1494 1496 1497 1496 1492 1487 1487 1478 1481 1506 1484 1486 1485 1488 1491 1493 1492 1496 1499 1506 1510 1514 1518 1521 1523 1526
1516 1513 1510 1507 1504 1501 1498 1495 1493 1492 1492 1492 1493 1493 1494 1489 1490 1491 1493 1495 1497 1498 1494 1493 1491 1487 1478 1476 1482 1481 1480 1478 1483 1490 1490 1485 1486 1494 1502 1508 1513 1516 1519 1521 1525
1515 1511 1508 1505 1502 1499 1496 1493 1491 1491 1491 1492 1492 1493 1488 1490 1491 1492 1494 1496 1497 1497 1494 1494 1491 1485 1479 1478 1479 1479 1503 1521 1477 1487 1491 1487 1491 1492 1501 1507 1511 1514 1518 1520 1523
1512 1509 1507 1504 1500 1497 1494 1492 1491 1491 1491 1491 1493 1493 1485 1489 1491 1492 1493 1494 1496 1496 1496 1494 1491 1482 1478 1475 1483 1469 1512 1486 1480 1483 1486 1491 1490 1491 1498 1504 1508 1512 1517 1519 1523
1511 1508 1505 1502 1499 1495 1493 1491 1491 1491 1491 1491 1492 1496 1487 1486 1488 1490 1492 1493 1494 1494 1495 1493 1486 1475 1468 1505 1572 1523 1476 1475 1479 1479 1481 1484 1480 1479 1493 1497 1502 1507 1513 1517 1521
1511 1507 1504 1501 1498 1494 1493 1492 1493 1493 1492 1482 1480 1482 1482 1485 1488 1489 1491 1492 1491 1491 1488 1486 1479 1475 1466 1484 1498 1479 1474 1475 1472 1476 1479 1473 1474 1473 1483 1493 1496 1501 1506 1513 1515
1509 1505 1502 1499 1496 1495 1494 1493 1493 1495 1486 1484 1484 1485 1485 1485 1486 1486 1489 1490 1488 1486 1481 1478 1481 1485 1469 1472 1471 1471 1490 1475 1469 1473 1478 1473 1475 1469 1476 1482 1490 1495 1499 1506 1513
1507 1503 1500 1498 1496 1495 1496 1495 1493 1493 1487 1480 1482 1483 1484 1486 1480 1481 1486 1484 1483 1482 1475 1472 1474 1472 1475 1476 1476 1470 1476 1480 1480 1474 1493 1491 1513 1491 1477 1478 1484 1491 1494 1500 1506
1505 1502 1499 1496 1497 1495 1496 1494 1494 1494 1479 1473 1478 1479 1482 1481 1476 1478 1483 1483 1478 1477 1472 1471 1470 1477 1479 1478 1473 1508 1483 1472 1476 1480 1545 1472 1515 1498 1475 1480 1482 1485 1489 1493 1500
1504 1501 1499 1497 1496 1496 1496 1495 1494 1495 1485 1462 1470 1474 1476 1476 1468 1476 1480 1480 1475 1472 1473 1473 1472 1480 1482 1474 1474 1477 1474 1475 1474 1475 1467 1489 1479 1516 1469 1475 1474 1482 1484 1489 1493
1503 1500 1497 1497 1495 1494 1494 1495 1496 1490 1478 1463 1464 1469 1472 1472 1470 1472 1478 1480 1477 1473 1470 1465 1466 1474 1476 1471 1478 1476 1478 1471 1465 1492 1498 1494 1471 1502 1477 1473 1474 1478 1484 1486 1490
1501 1497 1495 1495 1495 1494 1494 1495 1487 1475 1448 1462 1462 1462 1465 1467 1466 1471 1475 1478 1477 1484 1481 1475 1469 1471 1475 1477 1477 1480 1481 1487 1492 1554 1552 1495 1478 1478 1462 1467 1471 1476 1483 1486 1490
1497 1493 1490 1490 1491 1492 1494 1490 1485 1446 1446 1445 1449 1456 1462 1458 1461 1466 1471 1474 1469 1465 1466 1483 1489 1470 1469 1479 1478 1472 1469 1483 1511 1494 1502 1485 1491 1494 1472 1468 1472 1477 1482 1486 1490
1494 1491 1489 1489 1487 1490 1493 1481 1460 1446 1440 1451 1450 1457 1458 1454 1455 1462 1465 1465 1462 1462 1473 1468 1473 1455 1462 1469 1476 1478 1485 1469 1475 1460 1475 1493 1481 1453 1461 1462 1471 1476 1482 1486 1490
1490 1489 1487 1487 1487 1490 1487 1472 1448 1450 1451 1449 1456 1448 1457 1453 1463 1461 1462 1455 1457 1458 1460 1458 1478 1456 1460 1469 1471 1474 1467 1480 1473 1503 1503 1488 1474 1476 1466 1465 1469 1473 1480 1485 1490
1490 1485 1482 1483 1486 1487 1475 1459 1454 1459 1462 1454 1446 1447 1444 1450 1455 1457 1454 1451 1453 1456 1462 1460 1467 1466 1469 1476 1477 1474 1482 1475 1467 1470 1489 1493 1484 1458 1461 1459 1462 1469 1477 1482 1488
1491 1479 1480 1482 1483 1474 1464 1452 1457 1455 1462 1455 1451 1443 1443 1442 1452 1451 1451 1452 1456 1457 1467 1463 1461 1476 1471 1462 1462 1460 1464 1471 1484 1490 1476 1474 1474 1445 1451 1457 1462 1464 1474 1479 1486
1486 1475 1478 1479 1469 1458 1456 1453 1460 1456 1455 1455 1453 1448 1441 1443 1456 1448 1449 1456 1460 1461 1463 1465 1471 1479 1473 1463 1465 1471 1466 1463 1460 1457 1473 1486 1479 1448 1453 1457 1467 1465 1470 1479 1484
1488 1469 1471 1475 1465 1457 1453 1459 1459 1458 1453 1453 1450 1449 1449 1447 1444 1452 1453 1461 1464 1464 1468 1467 1460 1466 1472 1465 1452 1467 1467 1464 1465 1474 1468 1464 1461 1454 1452 1453 1461 1467 1470 1477 1484
1483 1465 1459 1460 1460 1455 1446 1449 1452 1453 1457 1456 1455 1451 1450 1452 1449 1452 1449 1460 1464 1468 1470 1467 1470 1459 1452 1453 1453 1456 1460 1461 1466 1463 1469 1456 1462 1453 1452 1458 1463 1467 1469 1476 1482
1479 1471 1465 1457 1452 1454 1454 1450 1448 1445 1449 1451 1453 1449 1445 1446 1446 1449 1447 1457 1461 1467 1465 1463 1468 1462 1465 1455 1454 1458 1456 1454 1455 1461 1461 1457 1456 1449 1453 1461 1464 1468 1468 1473 1479
1481 1479 1477 1457 1453 1454 1447 1447 1447 1443 1448 1447 1449 1444 1446 1445 1443 1441 1444 1447 1450 1457 1458 1457 1460 1465 1476 1453 1454 1469 1460 1453 1451 1449 1453 1464 1451 1448 1451 1455 1458 1461 1468 1469 1475